Location: Bullenkuhlen
(53.7689°N, 9.7495°E)
Time: 02:36:02
(UTC+00:00)

Cosmos 836 Rocket - Pass Details

Date: 09 April 2020
Orbit: 757 x 779 km, 74.1° (Epoch: 03 June)

Event Time Altitude Azimuth Distance (km) Brightness Sun altitude
Rises 21:33:35 0° 333° (NNW) 3,244 9.2 -24.1°
Reaches altitude 10° 21:35:58 10° 333° (NNW) 2,317 8.1 -24.3°
Maximum altitude 21:41:14 89° 243° (WSW) 778 4.4 -24.6°
Enters shadow 21:41:47 73° 158° (SSE) 811 4.3 -24.7°
